Location: *
(50.4271°S, 165.0830°W)
Time: 05:21:52
(UTC+00:00)

Daily predictions for brighter satellites

Satellite Brightness Start Highest point End
(mag) Time Altitude Azimuth Time Altitude Azimuth Time Altitude Azimuth
STARLINK-1390 3.5 03:41:19 10° WSW 03:45:01 57° S 03:48:42 10° E
STARLINK-1275 3.4 03:42:00 10° NW 03:45:07 52° NNE 03:48:14 10° ESE
Cosmos 2333 Rocket 3.1 03:40:20 10° NNE 03:45:19 31° ENE 03:50:20 10° SE
STARLINK-1309 3.4 03:42:54 10° NW 03:46:01 52° NNE 03:49:09 10° ESE
Cosmos 2278 Rocket 2.9 03:40:59 10° SSW 03:46:09 33° SE 03:51:16 10° ENE
STARLINK-1282 3.4 03:43:48 10° NW 03:46:56 53° NNE 03:50:05 10° ESE
BREEZE-M DEB (TANK) 3.5 03:44:15 10° WNW 03:47:16 37° N 03:49:52 10° ENE
STARLINK-1313 3.2 03:44:49 10° NW 03:47:58 59° NNE 03:51:08 10° ESE
FENGYUN 3A 3.9 03:42:39 10° SSE 03:48:01 52° E 03:53:19 10° N
STARLINK-62 3.7 03:45:05 10° NW 03:48:10 43° NNE 03:51:18 10° ESE
Cosmos 1844 Rocket 3.0 03:42:36 10° SSW 03:48:19 77° WNW 03:54:00 10° NNE
STARLINK-1279 3.2 03:45:47 10° NW 03:48:56 60° NNE 03:52:06 10° ESE
Cosmos 1151 Rocket 3.9 03:44:41 10° SSW 03:48:58 54° W 03:53:10 10° N
STARLINK-1298 3.3 03:46:29 10° NW 03:49:37 55° NNE 03:52:46 10° ESE
STARLINK-1029 4.0 03:46:49 10° NNW 03:49:45 34° NNE 03:52:43 10° E
STARLINK-34 3.7 03:47:00 10° NW 03:50:06 44° NNE 03:53:15 10° ESE
Okean O Rocket 3.4 03:47:48 10° SE 03:50:16 14° E 03:52:42 10° ENE
STARLINK-1301 3.5 03:46:49 10° NW 03:50:19 61° NNE 03:53:51 10° ESE
Cosmos 1743 Rocket 3.8 03:46:05 10° NNE 03:50:21 50° E 03:54:44 10° SSE
STARLINK-1293 3.3 03:47:25 10° NW 03:50:34 56° NNE 03:53:43 10° ESE
BREEZE-M DEB (TANK) 1.5 03:48:07 10° W 03:51:20 73° N 03:53:31 10° E
Cosmos 405 4.0 03:48:32 10° S 03:51:37 26° ESE 03:54:39 10° NE
STARLINK-55 3.0 03:48:25 10° WNW 03:51:42 82° NNE 03:55:00 10° ESE
STARLINK-1255 3.3 03:49:12 10° NW 03:52:20 57° NNE 03:55:30 10° ESE
METEOR-M 4.4 03:47:20 10° SSE 03:52:38 52° E 03:57:53 10° N
STARLINK-1307 3.5 03:50:08 10° NW 03:53:39 60° NNE 03:57:11 10° ESE
Cosmos 773 Rocket 4.0 03:49:31 10° NNW 03:54:46 88° ENE 04:00:02 10° SSE
Cosmos 1825 4.0 03:52:25 10° NW 03:55:54 31° WSW 03:59:25 10° S
Cosmos 1484 Rocket 2.7 03:52:25 10° SSE 03:56:21 72° ENE 04:00:10 10° N
STARLINK-1290 3.5 03:52:51 10° NW 03:56:22 62° NNE 03:59:53 10° ESE
STARLINK-29 3.1 03:53:16 10° WSW 03:56:36 85° NNW 03:59:56 10° ENE
ATLAS 2AS CENTAUR R/B 3.6 03:52:19 10° SW 03:57:46 29° SSE 04:03:30 10° ESE
Sich 1 4.3 03:54:28 10° NE 03:57:54 22° E 04:01:24 10° SE
STARLINK-1297 3.4 03:55:29 10° NW 03:59:01 64° NNE 04:02:25 11° ESE
Cosmos 2322 4.0 03:53:35 10° N 03:59:04 52° ENE 04:04:37 10° SE
STARLINK-26 3.2 03:56:08 10° WNW 03:59:39 90° S 04:03:00 11° ESE
CZ-2C R/B 3.3 03:56:48 10° S 04:01:20 48° WSW 04:05:46 10° NW
STARLINK-28 3.0 03:58:48 10° WNW 04:02:06 86° SSW 04:05:06 12° ESE
Cosmos 2360 Rocket 2.3 03:56:25 10° NNW 04:02:09 90° SSE 04:07:55 10° SSE
Cosmos 2056 Rocket 4.2 03:59:09 10° SSW 04:04:06 34° SE 04:08:56 10° ENE
STARLINK-41 2.9 04:01:10 10° WNW 04:04:24 84° NNE 04:07:16 13° ESE
STARLINK-48 4.0 04:01:48 10° NW 04:05:38 49° NNE 04:09:07 12° ESE
SJ-12 4.1 04:02:04 10° SSE 04:06:12 55° E 04:10:15 10° N
Cosmos 1346 Rocket 3.3 04:02:45 10° NNE 04:06:28 39° E 04:10:16 10° SSE
Cosmos 2333 4.4 04:02:04 10° N 04:07:45 57° ENE 04:13:27 10° SE
Cosmos 1980 Rocket 4.2 04:06:37 10° W 04:10:50 21° SW 04:15:03 10° SSE
Meteor 2-20 4.5 04:06:05 10° S 04:12:22 70° ESE 04:18:33 10° NNE
CZ-4B R/B 3.1 04:09:22 10° SSE 04:13:44 88° E 04:18:13 10° NNW
CZ-2C R/B 4.2 04:12:08 11° E 04:14:38 15° SE 04:17:35 10° SSE
Meteor PRIRODA 3.6 04:11:21 10° SSE 04:15:07 74° ENE 04:18:51 10° N
STARLINK-1291 3.1 04:12:59 10° WNW 04:16:23 81° NNE 04:18:57 17° ESE
STARLINK-1317 3.2 04:13:14 10° WNW 04:16:51 85° NNE 04:19:38 16° ESE
SKYMED 2 3.9 04:13:50 10° N 04:18:13 73° WNW 04:22:40 10° SSW
STARLINK-1305 4.5 04:14:20 10° NNW 04:18:14 38° NE 04:21:18 15° E
STARLINK-1264 3.1 04:14:51 10° WNW 04:18:16 82° NNE 04:20:47 17° ESE
STARLINK-33 3.0 04:16:30 10° WNW 04:19:48 77° SSW 04:22:07 18° ESE
STARLINK-1267 3.1 04:16:45 10° WNW 04:20:11 84° NNE 04:22:39 18° ESE
STARLINK-1278 4.3 04:17:22 10° NW 04:21:31 46° NNE 04:24:39 16° E
STARLINK-1272 3.1 04:18:37 10° WNW 04:22:04 86° NNE 04:24:28 19° ESE
STARLINK-64 3.7 04:19:17 10° NW 04:22:46 49° NNE 04:25:13 18° E
STARLINK-1262 4.4 04:19:15 10° NW 04:23:11 41° NE 04:26:05 17° E
STARLINK-1280 4.3 04:19:12 10° NW 04:23:21 47° NNE 04:26:25 17° E
STARLINK-1207 3.1 04:20:31 10° WNW 04:23:58 87° NNE 04:26:18 19° ESE
Cosmos 1666 Rocket 4.5 04:20:24 10° NNE 04:24:08 27° E 04:27:46 11° SSE
Cosmos 1340 2.7 04:20:25 10° NNW 04:24:15 88° WSW 04:28:08 10° SSE
ALOS 2.4 04:19:32 10° SSE 04:24:19 79° WSW 04:29:03 10° NNW
H-2A R/B 2.4 04:20:28 10° SSE 04:24:45 83° ENE 04:28:49 10° NNW
Cosmos 2219 Rocket 2.4 04:20:16 10° N 04:25:49 55° ENE 04:31:17 11° SE
STARLINK-1266 3.1 04:22:29 10° WNW 04:25:56 89° NE 04:28:11 20° ESE
Cosmos 1633 Rocket 4.1 04:22:43 10° NE 04:26:22 25° E 04:29:25 13° SE
Iridium 4 Rocket 4.2 04:21:02 10° NNW 04:26:22 58° W 04:31:17 10° S
CZ-4B DEB 4.4 04:20:57 10° SSE 04:26:23 52° E 04:31:46 10° N
STARLINK-1284 3.1 04:24:27 10° WNW 04:27:54 89° SSW 04:30:05 21° ESE
STARLINK-1300 4.3 04:24:07 10° NW 04:28:07 43° NE 04:30:50 19° E
STARLINK-66 3.0 04:25:13 10° W 04:28:30 71° SSW 04:30:29 22° ESE
SeaSat 1 4.4 04:27:40 11° SE 04:28:35 12° SSE 04:30:26 10° S
Cosmos 1680 Rocket 3.9 04:23:59 10° N 04:28:59 44° ENE 04:33:39 12° SE
Shenzhou-11 Module 4.3 04:28:34 10° N 04:29:35 12° NNE 04:30:37 10° NE
STARLINK-1258 3.1 04:26:22 10° WNW 04:29:49 87° SSW 04:31:55 22° ESE
Meteor 2-6 Rocket 4.2 04:24:36 10° SSW 04:30:09 89° ESE 04:35:43 10° N
Cosmos 923 Rocket 4.1 04:26:28 10° N 04:31:44 59° ENE 04:37:04 10° SSE
STARLINK-1292 3.1 04:28:20 10° WNW 04:31:47 86° SSW 04:33:49 23° ESE
STARLINK-52 3.6 04:29:31 10° WSW 04:32:45 58° NNW 04:35:59 10° NE
STARLINK-1295 4.2 04:29:05 10° NW 04:33:07 46° NNE 04:35:39 21° E
PAYLOAD B 4.4 04:28:01 10° SSE 04:33:28 50° E 04:38:50 10° N
STARLINK-1274 3.1 04:30:20 10° WNW 04:33:48 84° SSW 04:35:45 24° ESE
STARLINK-1338 3.2 04:30:21 10° WSW 04:34:01 73° SSE 04:36:25 20° E
CZ-4C R/B 3.9 04:28:50 10° WSW 04:34:56 28° SSW 04:39:27 13° SE
Cosmos 1782 4.1 04:31:23 10° SSW 04:35:17 45° W 04:39:08 10° NNW
STARLINK-1289 3.1 04:32:22 10° WNW 04:35:50 83° SSW 04:37:43 25° ESE
FALCON 9 DEB 3.3 04:33:10 10° WSW 04:36:43 74° NNW 04:39:35 15° ENE
Cosmos 1500 Rocket 4.1 04:33:04 10° NNW 04:37:26 61° WSW 04:41:50 10° S
STARLINK-1303 3.1 04:34:20 10° WNW 04:37:48 81° SSW 04:39:37 26° ESE
STARLINK-1287 4.1 04:33:59 10° NW 04:38:02 49° NNE 04:40:24 23° E
STARLINK-1371 3.2 04:35:45 10° WSW 04:39:26 76° SSE 04:41:37 23° E
STARLINK-75 3.1 04:36:20 10° W 04:39:36 68° SSW 04:41:08 28° ESE
STARLINK-1312 3.1 04:36:20 10° WNW 04:39:48 80° SSW 04:41:32 27° ESE
Cosmos 1862 3.3 04:35:48 10° N 04:39:48 64° E 04:43:55 10° SSE
SL-4 R/B 3.9 04:38:35 10° W 04:41:45 27° NW 04:45:05 10° NNE
STARLINK-1341 3.2 04:38:24 10° WSW 04:42:07 78° SSE 04:44:13 24° E
Cosmos 2322 Rocket 3.7 04:37:33 10° WNW 04:42:41 33° SW 04:47:52 10° SSE
Envisat 3.8 04:41:07 15° SE 04:44:38 30° E 04:49:08 10° NNE
STARLINK-1374 3.2 04:41:00 10° WSW 04:44:43 79° SSE 04:46:42 26° ENE
Cosmos 2297 4.5 04:41:04 10° SSW 04:46:06 30° SE 04:48:34 22° E
STARLINK-58 2.9 04:43:07 10° WNW 04:46:22 86° SSW 04:47:38 34° ESE
NOSS 0 Rocket 4.4 04:41:32 10° N 04:47:20 42° ENE 04:51:20 19° SE
Cosmos 1238 Rocket 3.5 04:43:27 10° NNE 04:47:20 32° E 04:48:23 28° ESE
STARLINK-1339 3.2 04:43:41 10° WSW 04:47:25 81° SSE 04:49:19 27° ENE
Cosmos 1805 Rocket 3.5 04:43:16 10° N 04:47:42 85° E 04:52:14 10° S
STARLINK-1302 3.9 04:43:51 10° NW 04:47:58 56° NNE 04:49:59 28° E
STARLINK-22 3.1 04:45:56 10° W 04:49:13 69° SSW 04:50:24 36° ESE
STARLINK-1377 3.2 04:46:02 10° WSW 04:49:44 83° SSE 04:51:30 29° ENE
MOS 1 Rocket 4.4 04:51:50 24° SE 04:51:50 24° SE 04:55:19 10° S
Meteor 1-27 Rocket 3.8 04:45:54 10° S 04:51:51 74° ESE 04:57:48 10° NNE
USA 234 3.4 04:47:01 19° ESE 04:52:01 77° SSW 04:58:38 10° WNW
STARLINK-1353 3.2 04:48:42 10° WSW 04:52:25 84° SSE 04:54:05 31° ENE
STARLINK 1040 2.9 04:49:56 10° WSW 04:52:32 45° S 04:52:48 43° SSE
Cosmos 1812 2.7 04:48:53 10° S 04:52:51 89° ESE 04:56:45 10° N
STARLINK-1273 3.8 04:48:49 10° NW 04:52:57 59° NNE 04:54:46 31° E
STARLINK-1320 2.8 04:50:37 10° WSW 04:53:51 87° NNW 04:54:59 37° ENE
STARLINK-1322 2.8 04:50:56 10° WSW 04:54:10 87° NNW 04:55:18 37° ENE
STARLINK-1324 2.8 04:51:18 10° WSW 04:54:31 86° NNW 04:55:38 37° ENE
STARLINK-1294 2.8 04:51:39 10° WSW 04:54:51 86° NNW 04:55:55 39° ENE
STARLINK-80 3.5 04:51:01 10° W 04:54:53 70° SSW 04:56:25 34° ESE
STARLINK-1261 2.8 04:51:57 10° WSW 04:55:11 86° NNW 04:56:16 38° ENE
STARLINK-43 3.6 04:51:35 10° W 04:55:18 56° S 04:56:34 35° ESE
STARLINK-1375 3.2 04:51:43 10° WSW 04:55:27 87° SSE 04:57:03 32° ENE
STARLINK-1325 2.9 04:52:17 10° WSW 04:55:30 86° NNW 04:56:35 38° ENE
Helios 1A Rocket 4.3 04:56:56 21° ENE 04:56:56 21° ENE 04:59:08 10° NNE
Cosmos 1461 2.7 04:51:47 10° SW 04:55:50 85° NW 04:59:44 10° NE
STARLINK-1333 2.9 04:52:40 10° WSW 04:55:53 85° NNW 04:56:57 39° ENE
STARLINK-1334 2.9 04:52:59 10° WSW 04:56:12 85° NNW 04:57:16 39° ENE
COSMOS 2428 2.7 04:50:46 10° NNW 04:56:33 82° ENE 05:01:20 16° SSE
STARLINK-1326 2.9 04:53:19 10° WSW 04:56:33 85° NNW 04:57:35 39° ENE
STARLINK-1323 2.9 04:53:38 10° WSW 04:56:52 84° NNW 04:57:54 40° ENE
STARLINK-1349 2.9 04:54:01 10° WSW 04:57:14 84° NNW 04:58:15 40° ENE
COSMOS 2455 4.2 04:52:57 10° SSW 04:57:24 20° SSE 04:58:54 19° SE
STARLINK-1336 2.9 04:54:20 10° WSW 04:57:33 84° NNW 04:58:33 41° ENE
STARLINK-1350 3.2 04:54:06 10° WSW 04:57:49 89° SSE 04:59:16 35° ENE
STARLINK-1288 3.8 04:53:44 10° NW 04:57:53 63° NNE 04:59:32 34° E
STARLINK-1331 2.9 04:54:42 10° WSW 04:57:56 83° NNW 04:58:55 41° ENE
STARLINK-1344 2.9 04:55:04 10° WSW 04:58:17 83° NNW 04:59:15 41° ENE
STARLINK-1343 2.9 04:55:20 10° WSW 04:58:34 83° NNW 04:59:31 42° ENE
STARLINK-1346 2.9 04:55:45 10° WSW 04:58:56 82° NNW 04:59:51 43° ENE
STARLINK-1328 2.9 04:56:01 10° WSW 04:59:15 82° NNW 05:00:11 42° ENE
STARLINK-1354 2.9 04:56:21 10° WSW 04:59:33 82° NNW 05:00:29 43° ENE
STARLINK-1347 2.9 04:56:42 10° WSW 04:59:56 81° NNW 05:00:50 43° ENE
STARLINK-1357 2.9 04:57:02 10° WSW 05:00:16 81° NNW 05:01:09 44° ENE
STARLINK-1352 3.2 04:56:50 10° WSW 05:00:33 89° NW 05:01:54 37° ENE
STARLINK-1335 2.9 04:57:26 10° WSW 05:00:39 81° NNW 05:01:32 44° ENE
STARLINK-1327 2.9 04:57:42 10° WSW 05:00:55 80° NNW 05:01:48 44° ENE
Cosmos 1459 Rocket 4.4 04:55:23 10° NNE 05:01:07 40° E 05:06:59 10° SSE
STARLINK-1340 2.9 04:58:03 10° WSW 05:01:16 80° NNW 05:02:08 45° ENE
STARLINK-1356 2.9 04:58:23 10° WSW 05:01:36 80° NNW 05:02:27 45° ENE
Gblst 52 Del rocket 4.4 04:54:44 10° WNW 05:01:37 87° NNE 05:04:58 29° ESE
STARLINK-1345 2.9 04:58:43 10° WSW 05:01:56 79° NNW 05:02:47 45° NE
STARLINK-1355 2.9 04:59:03 10° WSW 05:02:16 79° NNW 05:03:06 46° NE
ATLAS 5 CENTAUR R/B 3.3 04:56:01 10° N 05:02:22 35° ENE 05:04:51 27° E
STARLINK-1321 2.9 04:59:25 10° WSW 05:02:38 79° NNW 05:03:27 46° NE
STARLINK-1308 3.7 04:58:43 10° NW 05:02:54 67° NNE 05:04:21 38° E
STARLINK-1358 2.9 04:59:44 10° WSW 05:02:57 78° NNW 05:03:45 47° NE
Cosmos 1624 Rocket 3.9 04:57:43 10° SSW 05:03:02 88° ESE 05:08:19 10° NNE
STARLINK-1368 3.2 04:59:36 10° WSW 05:03:18 87° NNW 05:04:32 40° ENE
STARLINK-1332 2.9 05:00:08 10° WSW 05:03:21 78° NNW 05:04:08 47° NE
STARLINK-1348 2.9 05:00:26 10° WSW 05:03:39 78° NNW 05:04:25 48° NE
STARLINK-1283 3.5 04:59:51 10° W 05:03:43 65° SSW 05:04:52 41° SE
STARLINK-1330 2.9 05:00:45 10° WSW 05:03:57 78° NNW 05:04:43 48° NE
STARLINK-1363 2.9 05:01:09 10° WSW 05:04:22 77° NNW 05:05:07 49° NE
STARLINK-1337 2.9 05:01:26 10° WSW 05:04:38 77° NNW 05:05:23 49° NE
STARLINK-1311 2.9 05:01:52 10° W 05:04:54 58° S 05:05:12 54° SSE
STARLINK-1342 2.9 05:01:46 10° WSW 05:04:59 77° NNW 05:05:43 49° NE
Cosmos 2242 Rocket 4.4 05:00:58 10° S 05:04:28 31° SE 05:04:28 31° SE
STARLINK-1364 2.9 05:02:05 10° WSW 05:05:18 76° NNW 05:06:01 50° NE
CZ-4B R/B 3.1 05:00:04 10° SSE 05:05:33 67° ENE 05:11:04 10° N
STARLINK-1376 3.0 05:02:28 10° WSW 05:05:41 76° NNW 05:06:22 50° NE
Lacrosse 5 rocket 3.6 05:03:27 10° NNE 05:04:38 13° NE 05:04:38 13° NE
STARLINK-1360 3.0 05:02:47 10° WSW 05:05:59 76° NNW 05:06:40 51° NE
STARLINK-1369 3.2 05:02:21 10° WSW 05:06:04 85° NNW 05:07:12 42° ENE
STARLINK-1361 3.0 05:03:07 10° WSW 05:06:19 75° NNW 05:06:59 51° NE
Radarsat Rocket 4.5 04:58:42 10° SSE 05:06:37 63° ENE 05:13:30 10° N
STARLINK-1367 2.9 05:03:29 10° WSW 05:06:39 74° NNW 05:07:16 53° NE
STARLINK-1366 3.0 05:03:51 10° WSW 05:07:03 74° NNW 05:07:42 52° NE
Cosmos 1943 Rocket 3.3 05:02:57 10° SSW 05:07:25 23° SE 05:07:26 23° SE
Cosmos 371 Rocket 3.7 05:03:19 10° SSW 05:07:56 39° ESE 05:08:53 35° E
Cosmos 1707 Rocket 3.8 05:03:36 10° SSW 05:08:06 72° W 05:12:31 10° N
Cosmos 2369 Rocket 3.6 05:04:29 10° SSW 05:08:42 21° SE 05:08:42 21° SE
STARLINK-1372 3.3 05:05:08 10° WSW 05:08:51 82° NNW 05:09:53 45° ENE
Cosmos 2237 Rocket 2.5 05:03:32 10° N 05:08:54 45° ENE 05:11:03 31° ESE
STARLINK-61 3.7 05:05:43 10° NW 05:09:37 56° NNE 05:10:27 45° ENE
STARLINK-42 3.2 05:07:46 10° W 05:10:59 55° S 05:11:15 53° SSE
STARLINK-1316 3.0 05:07:51 10° W 05:11:01 60° SSW 05:11:15 58° SSE
STARLINK-1378 3.3 05:08:11 10° WSW 05:11:56 80° NNW 05:12:53 47° NE
STARLINK-1257 3.1 05:08:47 10° W 05:11:58 59° S 05:12:08 58° S
SL-16 R/B 4.2 05:08:07 10° W 05:12:25 21° SW 05:16:46 10° SSE
STARLINK-1304 3.6 05:08:38 10° WNW 05:12:50 74° NNE 05:13:54 48° E
STARLINK-1256 3.1 05:09:40 10° W 05:12:51 59° S 05:13:00 58° S
Cosmos 1470 Rocket 4.0 05:09:00 10° NNE 05:13:11 40° E 05:13:11 40° E
STARLINK-1213 3.1 05:10:35 10° W 05:13:46 59° S 05:13:52 58° S
STARLINK-1329 3.3 05:10:28 10° WSW 05:14:11 78° NNW 05:15:02 50° NE
STARLINK-1379 3.3 05:10:44 10° WSW 05:14:27 78° NNW 05:15:16 51° NE
STARLINK-1263 3.1 05:11:29 10° W 05:14:40 58° S 05:14:44 58° S
NOAA 12 4.4 05:12:37 29° SE 05:14:53 44° E 05:19:55 10° N
STARLINK-1286 3.6 05:10:53 10° WNW 05:15:07 78° NNE 05:16:08 50° E
STARLINK-1259 3.1 05:12:23 10° W 05:15:34 58° S 05:15:35 58° S
STARLINK-1265 3.1 05:12:56 10° W 05:16:03 58° SSW 05:16:03 58° SSW
STARLINK-39 4.5 05:12:36 10° NNW 05:16:02 31° NE 05:16:02 31° NE
STARLINK-1285 3.2 05:13:17 10° W 05:16:28 58° S 05:16:28 58° S
STARLINK-1268 3.2 05:13:55 10° W 05:17:02 57° SSW 05:17:02 57° SSW
STARLINK-1362 3.4 05:13:38 10° WSW 05:17:24 76° NNW 05:18:12 52° NE
STARLINK-1365 3.4 05:13:52 10° WSW 05:17:37 74° NNW 05:18:25 51° NE
STARLINK-31 4.4 05:14:12 10° NNW 05:17:37 32° NE 05:17:37 32° NE
Cosmos 1371 Rocket 4.5 05:12:38 10° SSW 05:18:02 66° WNW 05:23:22 10° N
STARLINK-1296 3.2 05:15:07 10° W 05:18:13 57° SSW 05:18:13 57° SSW
ATLAS CENTAUR R/B 3.0 05:14:57 10° SSW 05:18:35 25° SSE 05:18:35 25° SSE
STARLINK-1260 3.2 05:16:01 10° W 05:19:04 56° SSW 05:19:04 56° SSW
STARLINK-69 4.3 05:15:54 10° NNW 05:19:23 35° NNE 05:19:23 35° NNE
AQUARIUS 4.2 05:18:30 38° SE 05:19:58 56° E 05:24:26 10° N
STARLINK-1318 3.3 05:16:57 10° W 05:19:57 56° SSW 05:19:57 56° SSW
STARLINK-1373 3.4 05:16:26 10° WSW 05:20:11 73° NNW 05:20:51 56° NE
STARLINK-21 4.4 05:17:26 10° NNW 05:20:47 33° NNE 05:20:47 33° NNE
STARLINK-1275 3.3 05:17:48 10° W 05:20:46 55° SSW 05:20:46 55° SSW
STARLINK-1309 3.4 05:18:42 10° W 05:21:39 54° SSW 05:21:39 54° SSW
Cosmos 1862 Rocket 3.5 05:17:31 10° S 05:22:08 80° E 05:26:40 10° NNE
STARLINK-45 4.3 05:19:09 10° NNW 05:22:35 37° NNE 05:22:35 37° NNE
STARLINK-1282 3.4 05:19:38 10° W 05:22:32 54° SSW 05:22:32 54° SSW
STARLINK-1390 3.4 05:19:07 10° WSW 05:22:50 71° NNW 05:23:22 59° NNE
NOSS 3-4 (A) 3.9 05:16:05 10° SW 05:23:21 52° SSE 05:25:49 36° E
NOSS 3-4 (C) 4.0 05:16:11 10° SW 05:23:26 51° SSE 05:25:52 36° E
STARLINK-1313 3.5 05:20:41 10° W 05:23:32 51° SSW 05:23:32 51° SSW
STARLINK-62 3.3 05:20:56 10° W 05:23:57 59° SW 05:23:57 59° SW
STARLINK-70 4.3 05:20:45 10° NNW 05:24:06 36° NNE 05:24:06 36° NNE
SL-16 R/B 3.7 05:20:15 10° NNE 05:22:27 19° NE 05:22:27 19° NE
STARLINK-1279 3.5 05:21:40 10° W 05:24:28 50° SW 05:24:28 50° SW
STARLINK-1298 3.5 05:22:20 10° W 05:25:07 51° SW 05:25:07 51° SW
STARLINK-1029 3.3 05:22:22 10° W 05:25:14 61° SW 05:25:14 61° SW
STARLINK-76 4.4 05:22:17 10° NNW 05:25:32 35° NNE 05:25:32 35° NNE
STARLINK-71 4.3 05:22:15 10° NW 05:25:57 39° NNE 05:25:57 39° NNE
STARLINK-34 3.4 05:22:54 10° W 05:25:50 57° SW 05:25:50 57° SW
STARLINK-1293 3.6 05:23:16 10° W 05:26:02 50° SW 05:26:02 50° SW
Cosmos 158 Rocket 4.1 05:21:21 10° NNW 05:26:35 79° WSW 05:30:06 22° SSE
Okean O Rocket 1.7 05:23:38 16° S 05:27:10 77° WSW 05:31:38 10° NNW
Cosmos 1802 Rocket 4.2 05:21:14 10° NNE 05:27:26 51° E 05:33:40 10° SSE
STARLINK-1301 3.5 05:23:58 10° W 05:27:22 57° SSW 05:27:22 57° SSW
STARLINK-23 4.3 05:23:54 10° NNW 05:27:06 36° NNE 05:27:06 36° NNE
H-2A R/B 3.1 05:25:18 22° S 05:27:40 67° WSW 05:31:33 10° NNW
STARLINK-55 3.7 05:24:44 10° W 05:27:31 47° SW 05:27:31 47° SW
IRS-1C Rocket 4.4 05:28:07 43° ENE 05:28:07 43° ENE 05:33:02 10° N
STARLINK-1255 3.7 05:25:04 10° W 05:27:44 48° SW 05:27:44 48° SW
STARLINK-1299 3.6 05:24:42 10° WNW 05:29:04 87° SSW 05:29:38 67° ESE
STARLINK-32 4.3 05:25:31 10° NNW 05:28:40 36° NNE 05:28:40 36° NNE
Cosmos 2333 Rocket 2.8 05:23:37 10° NW 05:29:19 56° SW 05:33:32 18° SSE
STARLINK-1306 3.5 05:25:14 10° WNW 05:29:31 89° NNE 05:30:00 70° ESE
Cosmos 2112 Rocket 4.2 05:24:47 10° NNW 05:30:06 75° WSW 05:33:30 23° SSE
Cosmos 2278 Rocket 2.9 05:24:57 10° SW 05:30:33 56° WNW 05:36:06 10° N
STARLINK-40 4.3 05:27:10 10° NW 05:30:18 37° NNE 05:30:18 37° NNE
STARLINK-1307 3.6 05:27:19 10° W 05:30:38 57° SSW 05:30:38 57° SSW
STARLINK-44 4.4 05:28:44 10° NW 05:31:48 37° N 05:31:48 37° N
STARLINK-1281 3.5 05:28:31 10° WNW 05:32:44 88° NNE 05:33:02 77° ESE
STARLINK-1290 3.7 05:30:03 10° W 05:33:15 54° SW 05:33:15 54° SW
STARLINK-37 4.3 05:30:31 10° NW 05:33:38 40° N 05:33:38 40° N
SMAP 2.9 05:32:36 31° SSE 05:34:54 83° ENE 05:39:36 10° NNW
Sich 1 4.2 05:31:03 10° NNW 05:35:18 45° WSW 05:39:39 10° S
STARLINK-36 4.4 05:31:58 10° NW 05:34:57 37° N 05:34:57 37° N
STARLINK-1297 3.8 05:32:43 10° W 05:35:48 52° SW 05:35:48 52° SW
STARLINK-26 4.0 05:33:20 10° W 05:36:13 46° SW 05:36:13 46° SW
STARLINK-68 4.3 05:33:45 10° NW 05:36:47 40° N 05:36:47 40° N
STARLINK-1310 3.5 05:33:30 10° WNW 05:37:43 88° SSW 05:37:49 86° SE
STARLINK-28 4.2 05:35:11 10° WSW 05:37:31 38° SW 05:37:31 38° SW
STARLINK-63 4.3 05:35:21 10° NW 05:38:18 39° N 05:38:18 39° N
STARLINK-41 4.4 05:37:18 10° W 05:39:29 35° SW 05:39:29 35° SW
STARLINK-35 4.4 05:36:51 10° NW 05:39:42 37° N 05:39:42 37° N
STARLINK-51 4.4 05:38:32 10° NW 05:41:22 38° N 05:41:22 38° N
STARLINK-1319 3.6 05:38:28 10° WNW 05:42:36 83° WSW 05:42:36 83° WSW
STARLINK-30 4.5 05:40:09 10° NW 05:42:56 37° N 05:42:56 37° N
STARLINK-48 3.8 05:40:16 10° W 05:43:52 62° SW 05:43:52 62° SW
Cosmos 2360 Rocket 4.1 05:42:25 10° W 05:46:56 24° SW 05:50:57 12° S
STARLINK-1277 3.7 05:43:26 10° WNW 05:47:22 75° WSW 05:47:22 75° WSW
Tsikada Rocket 4.1 05:41:37 10° S 05:47:59 54° ESE 05:48:36 52° E
ATLAS 2AS CENTAUR R/B 2.6 05:43:22 10° SW 05:49:50 62° SE 05:51:07 53° E
Meteor 1-19 Rocket 4.5 05:46:52 10° S 05:51:10 48° SSE 05:51:10 48° SSE
STARLINK-1276 3.9 05:48:26 10° WNW 05:52:09 66° W 05:52:09 66° W
CZ-2C R/B 2.5 05:53:39 68° ENE 05:54:03 71° ESE 05:59:28 10° S
STARLINK-1305 4.1 05:53:26 10° WNW 05:56:57 59° W 05:56:57 59° W
Cosmos 1818 3.4 05:54:52 10° NW 06:00:18 86° SW 06:00:42 77° SSE
YAOGAN 6 4.3 06:03:03 29° NW 06:03:03 29° NW 06:05:02 10° NNW
STARLINK-1278 4.3 05:57:09 10° W 06:00:43 56° WSW 06:00:43 56° WSW
Cosmos 332 Rocket 4.3 05:57:16 10° SSW 06:01:02 52° SSW 06:01:02 52° SSW
STARLINK-1262 4.4 05:58:26 10° W 06:01:44 52° W 06:01:44 52° W
STARLINK-1280 4.4 05:58:59 10° W 06:02:29 54° WSW 06:02:29 54° WSW
Cosmos 1633 Rocket 4.3 05:59:43 10° NW 06:03:56 41° WSW 06:06:32 21° SSW
SeaSat 1 4.1 06:07:27 22° S 06:07:27 22° S 06:09:31 10° SSW
Meteor 1-18 Rocket 4.1 06:01:39 10° SSW 06:07:27 88° E 06:08:02 73° NNE
Meteor 1-25 Rocket 4.1 06:02:04 10° N 06:07:41 88° ENE 06:07:53 84° SSE
Cosmos 2100 Rocket 4.2 06:03:33 10° NNW 06:09:45 69° WSW 06:16:00 10° S
Cosmos 2219 Rocket 3.6 06:04:54 10° WNW 06:10:04 34° SW 06:13:00 22° S
Cosmos 1452 Rocket 3.8 06:11:42 10° SSW 06:16:59 65° WNW 06:17:29 61° NW
Envisat 4.0 06:21:20 26° S 06:23:49 45° WSW 06:28:40 10° NW
Cosmos 1980 4.3 06:19:11 10° NW 06:24:46 55° SW 06:25:39 50° SSW
CZ-4C R/B 3.8 06:19:55 10° SW 06:24:38 26° S 06:24:38 26° S
Cosmos 2061 Rocket 4.0 06:20:12 10° NNW 06:26:30 78° W 06:28:12 51° S
Feng Yun 1-1 Rocket 4.4 06:27:59 66° W 06:27:59 66° W 06:33:14 10° NNW
Cosmos 2297 4.0 06:25:04 10° SW 06:30:33 63° WNW 06:30:33 63° WNW
USA 234 3.6 06:34:22 51° S 06:34:41 52° S 06:41:03 10° W
Cosmos 2016 Rocket 4.3 06:30:48 10° NNW 06:37:05 68° WSW 06:39:14 43° S
Lacrosse 5 rocket 4.2 06:39:44 10° NW 06:40:19 14° NW 06:40:19 14° NW
COSMOS 2455 4.2 06:38:51 10° SSW 06:42:02 30° SSW 06:42:02 30° SSW
ATLAS 5 CENTAUR R/B 2.8 06:39:51 10° NW 06:46:25 68° WSW 06:46:25 68° WSW
Cosmos 1943 Rocket 3.7 06:46:17 10° SSW 06:48:59 29° SSW 06:48:59 29° SSW
Cosmos 2237 Rocket 3.3 06:47:45 10° WNW 06:52:55 39° SW 06:52:55 39° SW
Cosmos 2369 Rocket 3.8 06:48:00 10° SSW 06:50:30 27° SSW 06:50:30 27° SSW
ATLAS CENTAUR R/B 4.1 06:53:37 10° SW 06:54:47 18° SW 06:54:47 18° SW
SL-16 R/B 4.2 07:02:42 10° NW 07:04:24 20° NW 07:04:24 20° NW
NOSS 3-4 (A) 4.4 07:07:30 10° SW 07:13:17 48° W 07:13:17 48° W
NOSS 3-4 (C) 4.4 07:07:36 10° SW 07:13:20 48° W 07:13:20 48° W
Cosmos 2333 Rocket 4.5 07:11:10 10° WSW 07:14:56 17° SSW 07:15:33 17° SSW
ATLAS 2AS CENTAUR R/B 4.1 07:34:27 10° SW 07:38:35 33° W 07:38:35 33° W
